sat.trackr.live / text

‹ back to catalog

STARLINK-31884

NORAD 59676 · 2024-084Y

PAYLOAD ACTIVE UNKNOWN

§ Identity

Operator
Country
US
Launch date
2024-05-06
Launch site
AFETR
Launch vehicle
Mass (kg)
RCS (m²)

Purposes: comms

External: N2YO · Heavens-Above · Gunter

§ Orbital elements

Epoch: 2026-09-21T14:06:52.278048Z

Period
94.27 min
Inclination
42.9993°
Eccentricity
0.0000904
Mean motion
15.27590307 rev/d
Perigee alt
482.4 km
Apogee alt
483.6 km
Semi-major
6,861.2 km
B*
4.4310e-4
RAAN
15.4463°
Arg perigee
242.6561°
Mean anomaly
117.4199°
Rev number
13,433

§ Raw data

STARLINK-318841 59676U 24084Y   26264.58810507  .00011955  00000+0  44310-3 0  99902 59676  42.9993  15.4463 0000904 242.6561 117.4199 15.27590307134338

JSON: /api/v1/satellites/59676 · /tle

For live sub-satellite position, see the globe view (requires WebGL).

§ Visibility from observer

Set your observer location to see the next 7 days of passes ≥ 10°. The values pass through the URL so the page stays shareable.

No JS? Fill the form by hand. The geolocation button needs JavaScript.